This demonstration page uses our WeatherBlox Daily Observations layout. Learn more.

Left ArrowRight Arrow

41.55636, -103.73856

Hourly Observations for April 28, 2020

Temp ( °F °C ) Dew Point ( °F °C ) Humidity (%) Winds ( mph kmh ) Pressure ( in mb ) Visibility ( mi km ) Precip ( " mm )
6:58 pm 18:58 Mostly Clear 73 22.6 25 -4 17 17 Calm 29.76 1008 10 16 0.00 0.00
7:58 pm 19:58 Mostly Cloudy 67 19.2 35 1.4 31 31 W 6 9 29.78 1008 10 16 0.00 0.00
8:58 pm 20:58 Mostly Cloudy with Light Showers 63 17.3 43 6.3 49 49 W 9 15 29.84 1011 10 16 0.00 0.00
9:58 pm 21:58 Mostly Cloudy 61 16.3 40 4.6 46 46 WNW 13 20 29.84 1011 10 16 0.00 0.00
10:58 pm 22:58 Cloudy 60 15.4 38 3.4 45 45 NW 15 24 29.85 1011 10 16 0.00 0.00
11:58 pm 23:58 Mostly Cloudy 58 14.3 38 3.1 47 47 NNW 13 20 29.85 1011 10 16 0.00 0.00
12:58 am 00:58 Mostly Cloudy 53 11.4 39 3.9 60 60 W 8 13 29.85 1011 10 16 0.00 0.00
1:58 am 01:58 Mostly Cloudy 53 11.9 38 3.5 57 57 WNW 10 17 29.87 1011 10 16 0.00 0.00
2:58 am 02:58 Clear 46 7.8 38 3.1 72 72 SW 5 7 29.91 1013 10 16 0.00 0.00
3:58 am 03:58 Clear 47 8.1 38 3.1 71 71 W 5 7 29.91 1013 10 16 0.00 0.00
4:58 am 04:58 Clear 45 7.1 37 2.7 74 74 WSW 8 13 29.92 1013 10 16 0.00 0.00
5:58 am 05:58 Sunny 41 5.1 36 2 81 81 WSW 6 9 29.94 1014 10 16 0.00 0.00
6:58 am 06:58 Sunny 44 6.4 37 2.8 78 78 WSW 7 11 29.96 1015 10 16 0.00 0.00
7:58 am 07:58 Sunny 49 9.6 40 4.4 70 70 Calm 29.97 1015 10 16 0.00 0.00
8:58 am 08:58 Mostly Cloudy 54 12.4 37 2.9 53 53 N 17 28 30.00 1016 10 16 0.00 0.00
9:58 am 09:58 Mostly Cloudy 53 11.6 37 2.8 55 55 N 25 41 30.04 1017 10 16 0.00 0.00
10:58 am 10:58 Mostly Cloudy 50 10 36 2.3 59 59 NNW 23 37 30.09 1019 10 16 0.00 0.00
11:58 am 11:58 Mostly Cloudy 55 12.5 32 -0.1 42 42 NNW 24 39 30.09 1019 10 16 0.00 0.00
12:58 pm 12:58 Partly Cloudy 57 13.9 33 0.6 41 41 N 17 28 30.09 1019 10 16 0.00 0.00
1:58 pm 13:58 Mostly Cloudy 55 12.8 33 0.8 44 44 N 23 37 30.08 1019 10 16 0.00 0.00
2:58 pm 14:58 Mostly Cloudy 58 14.5 29 -1.5 33 33 NNW 22 35 30.10 1019 10 16 0.00 0.00
3:58 pm 15:58 Partly Cloudy 61 16.3 24 -4.2 24 24 NNW 31 50 30.07 1018 10 16 0.00 0.00
4:58 pm 16:58 Sunny 60 15.7 24 -4.6 25 25 NNW 24 39 30.08 1019 10 16 0.00 0.00
5:58 pm 17:58 Sunny 60 15.6 20 -6.5 21 21 NNW 28 44 30.09 1019 10 16 0.00 0.00

Powered by AerisWeather